Content
SEND FEEDBACK

Brazil Flag

FLORIANOPOLIS, SANTA CATARINA


Home > South America > Brazil > Santa Catarina
Elevation: 16 feet     Latitude: 27 40S     Longitude: 048 33W

WEATHER
 
SELECT A DAY
Number of Records: 200,253;   Date Range: 6/30/96 - 3/22/16
 
SHARE

PRINT THIS DATA

[ ← Previous Day ]
WEATHER ALMANAC - JULY 5, 2013
[ Next Day → ]
[ °C ]   °F
Weather ElementAverageHighLow
Temperature67 °F75.2 °F (2:00 pm)62.6 °F (5:00 am)
Dewpoint61.8 °F63 °F (3:00 am)59 °F (1:00 pm)
Humidity83.9 %100 % (11:00 pm)55 % (3:00 pm)
Barometer30.13 in30.23 in (3:00 am)30.04 in (4:00 pm)
Wind Speed11.4 mph18.4 mph (11:20 pm)
Weather ElementAverage
Visibility7.7 mi
Wind DirectionWNW (294.1 °)

Weather ElementTotal
Precipitation---
Cooling Degree Days3.9 (Base 65)
Growing Degree Days18.9 (Base 50)
Averaged from 27 records on July 5, 2013
WEATHER CONDITIONS BREAKOUT
WIND DIRECTION BREAKOUT
WEATHER BY HOUR - JULY 5, 2013
[ °C ]   °F
Local TimeTemperatureDewpointHumidityBarometerVisibilityWind DirectionWind SpeedGust SpeedPrecipitationEventsConditions
1:00 AM64.4 °F62.6 °F94 %30.21 in6.2 miNNW (340°)11.5 mphScattered Clouds
2:00 AM64.4 °F62.6 °F94 %30.21 in6.2 miNNW (340°)9.2 mphScattered Clouds
3:00 AM65.0 °F63.0 °F91 %30.23 in12.0 miNNW (340°)10.4 mphPartly Cloudy
3:00 AM64.4 °F62.6 °F94 %30.21 in6.2 miNNW (340°)10.4 mphScattered Clouds
4:00 AM64.4 °F62.6 °F94 %30.21 in6.2 miNorth (350°)10.4 mphScattered Clouds
5:00 AM62.6 °F60.8 °F94 %30.18 in6.2 miNorth (350°)6.9 mphScattered Clouds
6:00 AM62.6 °F60.8 °F94 %30.18 in6.2 miNNW (330°)9.2 mphScattered Clouds
7:00 AM62.6 °F60.8 °F94 %30.18 inNNW (340°)8.1 mphClear
8:00 AM62.6 °F60.8 °F94 %30.21 inNNW (330°)10.4 mphClear
9:00 AM65.0 °F62.0 °F85 %30.23 in12.0 miNorth (10°)10.4 mph
9:00 AM64.4 °F60.8 °F88 %30.21 inNorth (10°)10.4 mphClear
10:00 AM68.0 °F60.8 °F78 %30.21 inNNW (330°)13.8 mphClear
11:00 AM71.6 °F60.8 °F69 %30.18 inNW (320°)12.7 mphClear
1:00 PM73.4 °F59.0 °F61 %30.12 inNorth (10°)17.3 mphClear
2:00 PM75.2 °F60.8 °F61 %30.09 inNorth (360°)13.8 mphClear
3:00 PM75.0 °F62.0 °F55 %30.07 in12.0 miNorth11.5 mph
3:00 PM75.2 °F62.6 °F65 %30.06 inNorth (360°)11.5 mphClear
4:00 PM75.2 °F62.6 °F65 %30.04 inNorth (360°)13.8 mphClear
5:00 PM71.6 °F62.6 °F73 %30.04 inNorth (350°)13.8 mphClear
6:00 PM69.8 °F62.6 °F78 %30.04 inNorth (360°)11.5 mphClear
7:00 PM68.0 °F62.6 °F83 %30.06 inNorth (360°)13.8 mphClear
8:00 PM66.2 °F62.6 °F88 %30.06 inNorth (360°)9.2 mphClear
9:00 PM65.0 °F62.0 °F86 %30.09 in12.0 miNorth (350°)4.6 mph
9:00 PM64.4 °F62.6 °F94 %30.06 inNorth (350°)4.6 mphClear
10:00 PM62.6 °F60.8 °F94 %30.06 in6.2 miNNW (330°)13.8 mphPartly Cloudy
11:00 PM62.6 °F62.6 °F100 %30.06 in6.2 miNNW (330°)17.3 mphFogPatches of Fog
11:20 PM62.6 °F62.6 °F100 %30.06 in2.8 miNNW (330°)18.4 mphFogPatches of Fog
Hourly data recorded from SBFL, located miles away from Florianopolis, Santa Catarina




STORIES FROM OUR PARTNERS